Location: Brodeslavy
(49.9527°N, 13.5567°E)
Time: 04:09:56
(UTC+00:00)

Cosmos 2233 Rocket - Pass Details

Date: 17 June 2025
Orbit: 953 x 989 km, 82.9° (Epoch: 12 July)

Event Time Altitude Azimuth Distance (km) Brightness Sun altitude
Rises 21:02:48 0° 349° (NNW) 3,709 8.6 -11.7°
Reaches altitude 10° 21:05:19 10° 348° (NNW) 2,758 7.7 -11.8°
Maximum altitude 21:11:39 76° 264° (W) 1,024 4.2 -12.3°
Enters shadow 21:17:18 13° 181° (S) 2,508 5.6 -12.7°
